Time,TemperatureF,DewpointF,PressureIn,WindDirection,WindDirectionDegrees,WindSpeedMPH,WindSpeedGustMPH,Humidity,HourlyPrecipIn,Conditions,Clouds,dailyrainin,SoftwareType,DateUTC
2013-07-15 00:01:00,78.1,77.5,30.28,WSW,248,0.0,0.0,98,0.00,RA,,0.00,WeatherDisplay:10.37,2013-07-15 04:01:00,
2013-07-15 00:02:00,78.1,77.5,30.28,WSW,248,0.0,0.0,98,0.00,RA,,0.00,WeatherDisplay:10.37,2013-07-15 04:02:00,
2013-07-15 00:07:00,78.1,77.5,30.28,West,270,0.0,0.0,98,0.00,RA,,0.00,WeatherDisplay:10.37,2013-07-15 04:07:00,
2013-07-15 00:12:00,78.1,77.5,30.28,West,270,0.0,0.0,98,0.00,CLR,,0.00,WeatherDisplay:10.37,2013-07-15 04:12:00,
2013-07-15 00:17:00,78.4,77.8,30.28,WNW,292,3.5,0.0,98,0.00,CLR,,0.00,WeatherDisplay:10.37,2013-07-15 04:17:00,
2013-07-15 00:22:00,78.6,78.0,30.27,WNW,292,3.5,3.5,98,0.00,CLR,,0.00,WeatherDisplay:10.37,2013-07-15 04:22:00,
2013-07-15 00:27:00,78.6,78.0,30.27,WNW,292,0.0,0.0,98,0.00,CLR,,0.00,WeatherDisplay:10.37,2013-07-15 04:27:00,
2013-07-15 00:32:00,78.6,78.0,30.27,WNW,292,2.3,0.0,98,0.00,CLR,,0.00,WeatherDisplay:10.37,2013-07-15 04:32:00,
2013-07-15 00:37:00,78.6,78.0,30.27,WNW,292,0.0,0.0,98,0.00,CLR,,0.00,WeatherDisplay:10.37,2013-07-15 04:37:00,
2013-07-15 00:42:00,78.6,78.0,30.27,WNW,292,0.0,0.0,98,0.00,CLR,,0.00,WeatherDisplay:10.37,2013-07-15 04:42:00,
2013-07-15 00:47:00,78.3,77.7,30.27,WNW,292,0.0,0.0,98,0.00,CLR,,0.00,WeatherDisplay:10.37,2013-07-15 04:47:00,
2013-07-15 00:52:00,78.3,77.7,30.27,WNW,292,0.0,0.0,98,0.00,CLR,,0.00,WeatherDisplay:10.37,2013-07-15 04:52:00,
2013-07-15 00:57:00,78.1,77.5,30.27,WNW,292,0.0,0.0,98,0.00,CLR,,0.00,WeatherDisplay:10.37,2013-07-15 04:57:00,
2013-07-15 01:02:00,77.9,77.3,30.27,WNW,292,0.0,0.0,98,0.00,CLR,,0.00,WeatherDisplay:10.37,2013-07-15 05:02:00,
2013-07-15 01:07:00,77.9,77.3,30.27,WNW,292,0.0,0.0,98,0.00,CLR,,0.00,WeatherDisplay:10.37,2013-07-15 05:07:00,
2013-07-15 01:12:00,77.7,77.1,30.27,WNW,292,0.0,0.0,98,0.00,CLR,,0.00,WeatherDisplay:10.37,2013-07-15 05:12:00,
2013-07-15 01:17:00,77.5,76.9,30.27,WNW,292,0.0,0.0,98,0.00,CLR,,0.00,WeatherDisplay:10.37,2013-07-15 05:17:00,
2013-07-15 01:22:00,77.4,76.8,30.27,WNW,292,0.0,0.0,98,0.00,FEW,,0.00,WeatherDisplay:10.37,2013-07-15 05:22:00,
2013-07-15 01:27:00,77.2,76.6,30.27,WNW,292,0.0,0.0,98,0.00,FEW,,0.00,WeatherDisplay:10.37,2013-07-15 05:27:00,
2013-07-15 01:32:00,77.2,76.6,30.27,WNW,292,0.0,0.0,98,0.00,FEW,,0.00,WeatherDisplay:10.37,2013-07-15 05:32:00,
2013-07-15 01:37:00,77.2,76.6,30.27,WNW,292,0.0,0.0,98,0.00,FEW,,0.00,WeatherDisplay:10.37,2013-07-15 05:37:00,
2013-07-15 01:42:00,77.0,76.4,30.27,WNW,292,0.0,0.0,98,0.00,FEW,,0.00,WeatherDisplay:10.37,2013-07-15 05:42:00,
2013-07-15 01:47:00,77.0,76.4,30.27,WNW,292,0.0,0.0,98,0.00,FEW,,0.00,WeatherDisplay:10.37,2013-07-15 05:47:00,
2013-07-15 01:52:00,77.0,76.4,30.27,WNW,292,0.0,0.0,98,0.00,FEW,,0.00,WeatherDisplay:10.37,2013-07-15 05:52:00,
2013-07-15 01:57:00,77.0,76.4,30.27,WNW,292,0.0,0.0,98,0.00,FEW,,0.00,WeatherDisplay:10.37,2013-07-15 05:57:00,
2013-07-15 02:02:00,77.0,76.4,30.27,WNW,292,0.0,0.0,98,0.00,FEW,,0.00,WeatherDisplay:10.37,2013-07-15 06:02:00,
2013-07-15 02:07:00,77.0,76.4,30.27,WNW,292,0.0,0.0,98,0.00,FEW,,0.00,WeatherDisplay:10.37,2013-07-15 06:07:00,
2013-07-15 02:12:00,77.0,76.4,30.27,WNW,292,0.0,0.0,98,0.00,FEW,,0.00,WeatherDisplay:10.37,2013-07-15 06:12:00,
2013-07-15 02:17:00,77.0,76.4,30.27,WNW,292,0.0,0.0,98,0.00,FEW,,0.00,WeatherDisplay:10.37,2013-07-15 06:17:00,
2013-07-15 02:22:00,77.0,76.4,30.27,WNW,292,0.0,0.0,98,0.00,FEW,,0.00,WeatherDisplay:10.37,2013-07-15 06:22:00,
2013-07-15 02:27:00,77.0,76.4,30.27,WNW,292,0.0,0.0,98,0.00,FEW,,0.00,WeatherDisplay:10.37,2013-07-15 06:27:00,
2013-07-15 02:32:00,77.0,76.4,30.27,WNW,292,0.0,0.0,98,0.00,FEW,,0.00,WeatherDisplay:10.37,2013-07-15 06:32:00,
2013-07-15 02:37:00,77.0,76.4,30.27,WNW,292,0.0,0.0,98,0.00,FEW,,0.00,WeatherDisplay:10.37,2013-07-15 06:37:00,
2013-07-15 02:42:00,76.8,76.2,30.27,WNW,292,0.0,0.0,98,0.00,FEW,,0.00,WeatherDisplay:10.37,2013-07-15 06:42:00,
2013-07-15 02:47:00,76.6,76.0,30.27,WNW,292,0.0,0.0,98,0.00,FEW,,0.00,WeatherDisplay:10.37,2013-07-15 06:47:00,
2013-07-15 02:52:00,76.6,76.0,30.27,WNW,292,0.0,0.0,98,0.00,FEW,,0.00,WeatherDisplay:10.37,2013-07-15 06:52:00,
2013-07-15 02:57:00,76.6,76.0,30.27,WNW,292,0.0,0.0,98,0.00,FEW,,0.00,WeatherDisplay:10.37,2013-07-15 06:57:00,
2013-07-15 03:02:00,76.6,76.0,30.27,WNW,292,0.0,0.0,98,0.00,FEW,,0.00,WeatherDisplay:10.37,2013-07-15 07:02:00,
2013-07-15 03:07:00,76.6,76.0,30.27,WNW,292,0.0,0.0,98,0.00,FEW,,0.00,WeatherDisplay:10.37,2013-07-15 07:07:00,
2013-07-15 03:12:00,76.6,76.0,30.27,WNW,292,0.0,0.0,98,0.00,FEW,,0.00,WeatherDisplay:10.37,2013-07-15 07:12:00,
2013-07-15 03:17:00,76.5,75.9,30.27,WNW,292,0.0,0.0,98,0.00,FEW,,0.00,WeatherDisplay:10.37,2013-07-15 07:17:00,
2013-07-15 03:22:00,76.5,75.9,30.26,WNW,292,0.0,0.0,98,0.00,FEW,,0.00,WeatherDisplay:10.37,2013-07-15 07:22:00,
2013-07-15 03:27:00,76.5,75.9,30.26,WNW,292,0.0,0.0,98,0.00,FEW,,0.00,WeatherDisplay:10.37,2013-07-15 07:27:00,
2013-07-15 03:32:00,76.3,75.7,30.26,WNW,292,0.0,0.0,98,0.00,FEW,,0.00,WeatherDisplay:10.37,2013-07-15 07:32:00,
2013-07-15 03:37:00,76.3,75.7,30.26,WNW,292,0.0,0.0,98,0.00,FEW,,0.00,WeatherDisplay:10.37,2013-07-15 07:37:00,
2013-07-15 03:42:00,76.3,75.7,30.26,WNW,292,0.0,0.0,98,0.00,FEW,,0.00,WeatherDisplay:10.37,2013-07-15 07:42:00,
2013-07-15 03:47:00,76.3,75.7,30.26,WNW,292,0.0,0.0,98,0.00,FEW,,0.00,WeatherDisplay:10.37,2013-07-15 07:47:00,
2013-07-15 03:52:00,76.3,75.7,30.26,WNW,292,0.0,0.0,98,0.00,FEW,,0.00,WeatherDisplay:10.37,2013-07-15 07:52:00,
2013-07-15 03:57:00,76.3,75.7,30.26,WNW,292,0.0,0.0,98,0.00,FEW,,0.00,WeatherDisplay:10.37,2013-07-15 07:57:00,
2013-07-15 04:02:00,76.1,75.5,30.26,WNW,292,0.0,0.0,98,0.00,FEW,,0.00,WeatherDisplay:10.37,2013-07-15 08:02:00,
2013-07-15 04:07:00,76.1,75.5,30.26,WNW,292,0.0,0.0,98,0.00,FEW,,0.00,WeatherDisplay:10.37,2013-07-15 08:07:00,
2013-07-15 04:12:00,76.1,75.5,30.26,WNW,292,0.0,0.0,98,0.00,FEW,,0.00,WeatherDisplay:10.37,2013-07-15 08:12:00,
2013-07-15 04:17:00,76.1,75.5,30.26,WNW,292,0.0,0.0,98,0.00,FEW,,0.00,WeatherDisplay:10.37,2013-07-15 08:17:00,
2013-07-15 04:22:00,75.9,75.3,30.27,WNW,292,0.0,0.0,98,0.00,BKN,,0.00,WeatherDisplay:10.37,2013-07-15 08:22:00,
2013-07-15 04:27:00,75.9,75.3,30.27,WNW,292,0.0,0.0,98,0.00,BKN,,0.00,WeatherDisplay:10.37,2013-07-15 08:27:00,
2013-07-15 04:32:00,75.9,75.3,30.27,WNW,292,0.0,0.0,98,0.00,BKN,,0.00,WeatherDisplay:10.37,2013-07-15 08:32:00,
2013-07-15 04:38:00,75.9,75.3,30.27,WNW,292,0.0,0.0,98,0.00,BKN,,0.00,WeatherDisplay:10.37,2013-07-15 08:38:00,
2013-07-15 04:43:00,75.7,75.1,30.27,WNW,292,0.0,0.0,98,0.00,BKN,,0.00,WeatherDisplay:10.37,2013-07-15 08:43:00,
2013-07-15 04:48:00,75.7,75.1,30.27,WNW,292,0.0,0.0,98,0.00,BKN,,0.00,WeatherDisplay:10.37,2013-07-15 08:48:00,
2013-07-15 04:53:00,75.7,75.1,30.27,WNW,292,0.0,0.0,98,0.00,BKN,,0.00,WeatherDisplay:10.37,2013-07-15 08:53:00,
2013-07-15 04:58:00,75.7,75.1,30.27,WNW,292,0.0,0.0,98,0.00,BKN,,0.00,WeatherDisplay:10.37,2013-07-15 08:58:00,
2013-07-15 05:03:00,75.6,75.0,30.27,WNW,292,0.0,0.0,98,0.00,BKN,,0.00,WeatherDisplay:10.37,2013-07-15 09:03:00,
2013-07-15 05:08:00,75.6,75.0,30.27,WNW,292,0.0,0.0,98,0.00,BKN,,0.00,WeatherDisplay:10.37,2013-07-15 09:08:00,
2013-07-15 05:13:00,75.6,75.0,30.27,WNW,292,0.0,0.0,98,0.00,BKN,,0.00,WeatherDisplay:10.37,2013-07-15 09:13:00,
2013-07-15 05:18:00,75.6,75.0,30.27,WNW,292,0.0,0.0,98,0.00,BKN,,0.00,WeatherDisplay:10.37,2013-07-15 09:18:00,
2013-07-15 05:23:00,75.6,75.0,30.27,WNW,292,0.0,0.0,98,0.00,SCT,,0.00,WeatherDisplay:10.37,2013-07-15 09:23:00,
2013-07-15 05:28:00,75.4,74.8,30.27,WNW,292,0.0,0.0,98,0.00,SCT,,0.00,WeatherDisplay:10.37,2013-07-15 09:28:00,
2013-07-15 05:33:00,75.4,74.8,30.27,WNW,292,0.0,0.0,98,0.00,SCT,,0.00,WeatherDisplay:10.37,2013-07-15 09:33:00,
2013-07-15 05:38:00,75.4,74.8,30.27,WNW,292,0.0,0.0,98,0.00,SCT,,0.00,WeatherDisplay:10.37,2013-07-15 09:38:00,
2013-07-15 05:43:00,75.4,74.8,30.27,WNW,292,0.0,0.0,98,0.00,SCT,,0.00,WeatherDisplay:10.37,2013-07-15 09:43:00,
2013-07-15 05:48:00,75.2,74.6,30.27,WNW,292,0.0,0.0,98,0.00,SCT,,0.00,WeatherDisplay:10.37,2013-07-15 09:48:00,
2013-07-15 05:53:00,75.2,74.6,30.27,WNW,292,0.0,0.0,98,0.00,SCT,,0.00,WeatherDisplay:10.37,2013-07-15 09:53:00,
2013-07-15 05:58:00,75.2,74.6,30.27,WNW,292,0.0,0.0,98,0.00,SCT,,0.00,WeatherDisplay:10.37,2013-07-15 09:58:00,
2013-07-15 06:03:00,75.2,74.6,30.27,WNW,292,0.0,0.0,98,0.00,SCT,,0.00,WeatherDisplay:10.37,2013-07-15 10:03:00,
2013-07-15 06:08:00,75.2,74.6,30.27,WNW,292,0.0,0.0,98,0.00,SCT,,0.00,WeatherDisplay:10.37,2013-07-15 10:08:00,
2013-07-15 06:13:00,75.2,74.6,30.27,WNW,292,0.0,0.0,98,0.00,SCT,,0.00,WeatherDisplay:10.37,2013-07-15 10:13:00,
2013-07-15 06:18:00,75.2,74.6,30.27,WNW,292,0.0,0.0,98,0.00,SCT,,0.00,WeatherDisplay:10.37,2013-07-15 10:18:00,
2013-07-15 06:23:00,75.2,74.6,30.27,WNW,292,0.0,0.0,98,0.00,SCT,,0.00,WeatherDisplay:10.37,2013-07-15 10:23:00,
2013-07-15 06:28:00,75.2,74.6,30.27,WNW,292,0.0,0.0,98,0.00,SCT,,0.00,WeatherDisplay:10.37,2013-07-15 10:28:00,
2013-07-15 06:33:00,75.2,74.6,30.27,WNW,292,0.0,0.0,98,0.00,SCT,,0.00,WeatherDisplay:10.37,2013-07-15 10:33:00,
2013-07-15 06:38:00,75.2,74.6,30.27,WNW,292,0.0,0.0,98,0.00,SCT,,0.00,WeatherDisplay:10.37,2013-07-15 10:38:00,
2013-07-15 06:43:00,75.2,74.6,30.27,WNW,292,0.0,0.0,98,0.00,SCT,,0.00,WeatherDisplay:10.37,2013-07-15 10:43:00,
2013-07-15 06:48:00,75.2,74.6,30.27,WNW,292,0.0,0.0,98,0.00,SCT,,0.00,WeatherDisplay:10.37,2013-07-15 10:48:00,
2013-07-15 06:53:00,75.2,74.6,30.27,WNW,292,0.0,0.0,98,0.00,SCT,,0.00,WeatherDisplay:10.37,2013-07-15 10:53:00,
2013-07-15 06:58:00,75.2,74.6,30.27,WNW,292,0.0,0.0,98,0.00,SCT,,0.00,WeatherDisplay:10.37,2013-07-15 10:58:00,
2013-07-15 07:03:00,75.2,74.6,30.27,WNW,292,0.0,0.0,98,0.00,SCT,,0.00,WeatherDisplay:10.37,2013-07-15 11:03:00,
2013-07-15 07:08:00,75.2,74.6,30.27,WNW,292,0.0,0.0,98,0.00,SCT,,0.00,WeatherDisplay:10.37,2013-07-15 11:08:00,
2013-07-15 07:13:00,75.2,74.6,30.27,WNW,292,0.0,0.0,98,0.00,SCT,,0.00,WeatherDisplay:10.37,2013-07-15 11:13:00,
2013-07-15 07:18:00,75.2,74.6,30.27,WNW,292,0.0,0.0,98,0.00,SCT,,0.00,WeatherDisplay:10.37,2013-07-15 11:18:00,
2013-07-15 07:23:00,75.4,74.8,30.28,WNW,292,0.0,0.0,98,0.00,FEW,,0.00,WeatherDisplay:10.37,2013-07-15 11:23:00,
2013-07-15 07:28:00,75.4,74.8,30.28,WNW,292,0.0,0.0,98,0.00,FEW,,0.00,WeatherDisplay:10.37,2013-07-15 11:28:00,
2013-07-15 07:33:00,75.4,74.8,30.28,WNW,292,0.0,0.0,98,0.00,FEW,,0.00,WeatherDisplay:10.37,2013-07-15 11:33:00,
2013-07-15 07:38:00,75.6,75.0,30.28,WNW,292,0.0,0.0,98,0.00,FEW,,0.00,WeatherDisplay:10.37,2013-07-15 11:38:00,
2013-07-15 07:43:00,75.7,75.1,30.28,WNW,292,0.0,0.0,98,0.00,FEW,,0.00,WeatherDisplay:10.37,2013-07-15 11:43:00,
2013-07-15 07:48:00,75.9,75.3,30.28,WNW,292,0.0,0.0,98,0.00,FEW,,0.00,WeatherDisplay:10.37,2013-07-15 11:48:00,
2013-07-15 07:53:00,76.1,75.5,30.28,WNW,292,0.0,0.0,98,0.00,FEW,,0.00,WeatherDisplay:10.37,2013-07-15 11:53:00,
2013-07-15 07:58:00,76.5,75.9,30.28,WNW,292,0.0,0.0,98,0.00,FEW,,0.00,WeatherDisplay:10.37,2013-07-15 11:58:00,
2013-07-15 08:03:00,76.8,76.2,30.29,WNW,292,0.0,0.0,98,0.00,BKN,,0.00,WeatherDisplay:10.37,2013-07-15 12:03:00,
2013-07-15 08:08:00,77.0,76.4,30.29,WNW,292,0.0,0.0,98,0.00,BKN,,0.00,WeatherDisplay:10.37,2013-07-15 12:08:00,
2013-07-15 08:13:00,77.4,76.8,30.29,WNW,292,0.0,0.0,98,0.00,BKN,,0.00,WeatherDisplay:10.37,2013-07-15 12:13:00,
2013-07-15 08:18:00,77.5,76.9,30.29,WNW,292,0.0,0.0,98,0.00,BKN,,0.00,WeatherDisplay:10.37,2013-07-15 12:18:00,
2013-07-15 08:23:00,77.7,77.1,30.29,WNW,292,0.0,0.0,98,0.00,BKN,,0.00,WeatherDisplay:10.37,2013-07-15 12:23:00,
2013-07-15 08:28:00,77.9,77.3,30.29,WNW,292,0.0,0.0,98,0.00,BKN,,0.00,WeatherDisplay:10.37,2013-07-15 12:28:00,
2013-07-15 08:33:00,78.1,77.5,30.29,WNW,292,0.0,0.0,98,0.00,BKN,,0.00,WeatherDisplay:10.37,2013-07-15 12:33:00,
2013-07-15 08:38:00,78.4,77.8,30.29,SW,225,3.5,0.0,98,0.00,BKN,,0.00,WeatherDisplay:10.37,2013-07-15 12:38:00,
2013-07-15 08:43:00,78.6,78.0,30.29,SW,225,0.0,0.0,98,0.00,BKN,,0.00,WeatherDisplay:10.37,2013-07-15 12:43:00,
2013-07-15 08:48:00,78.6,78.0,30.29,SW,225,0.0,0.0,98,0.00,BKN,,0.00,WeatherDisplay:10.37,2013-07-15 12:48:00,
2013-07-15 08:53:00,79.0,78.4,30.29,SW,225,0.0,0.0,98,0.00,BKN,,0.00,WeatherDisplay:10.37,2013-07-15 12:53:00,
2013-07-15 08:58:00,79.9,79.3,30.29,SW,225,3.5,0.0,98,0.00,BKN,,0.00,WeatherDisplay:10.37,2013-07-15 12:58:00,
2013-07-15 09:04:00,80.4,79.8,30.29,SSW,202,0.0,1.1,98,0.00,BKN,,0.00,WeatherDisplay:10.37,2013-07-15 13:04:00,
2013-07-15 09:09:00,80.1,79.5,30.29,South,180,0.0,0.0,98,0.00,BKN,,0.00,WeatherDisplay:10.37,2013-07-15 13:09:00,
2013-07-15 09:14:00,80.1,79.5,30.29,South,180,0.0,0.0,98,0.00,BKN,,0.00,WeatherDisplay:10.37,2013-07-15 13:14:00,
2013-07-15 09:19:00,80.8,80.2,30.29,SSW,202,0.0,0.0,98,0.00,BKN,,0.00,WeatherDisplay:10.37,2013-07-15 13:19:00,
2013-07-15 09:24:00,81.3,80.7,30.29,WNW,292,0.0,0.0,98,0.00,OVC,,0.00,WeatherDisplay:10.37,2013-07-15 13:24:00,
2013-07-15 09:29:00,82.2,79.3,30.29,WNW,292,0.0,0.0,91,0.00,OVC,,0.00,WeatherDisplay:10.37,2013-07-15 13:29:00,
2013-07-15 09:34:00,82.2,79.3,30.29,West,270,0.0,0.0,91,0.00,OVC,,0.00,WeatherDisplay:10.37,2013-07-15 13:34:00,
2013-07-15 09:39:00,81.9,81.3,30.29,SW,225,0.0,0.0,98,0.00,OVC,,0.00,WeatherDisplay:10.37,2013-07-15 13:39:00,
2013-07-15 09:44:00,81.9,81.3,30.29,SW,225,0.0,0.0,98,0.00,FEW,,0.00,WeatherDisplay:10.37,2013-07-15 13:44:00,
2013-07-15 09:49:00,81.7,81.1,30.29,SW,225,0.0,0.0,98,0.00,FEW,,0.00,WeatherDisplay:10.37,2013-07-15 13:49:00,
2013-07-15 09:54:00,81.9,81.3,30.29,SW,225,0.0,0.0,98,0.00,FEW,,0.00,WeatherDisplay:10.37,2013-07-15 13:54:00,
2013-07-15 09:59:00,81.5,80.9,30.29,SSW,202,0.0,0.0,98,0.00,FEW,,0.00,WeatherDisplay:10.37,2013-07-15 13:59:00,
2013-07-15 10:04:00,81.9,81.3,30.29,SSW,202,0.0,0.0,98,0.00,FEW,,0.00,WeatherDisplay:10.37,2013-07-15 14:04:00,
2013-07-15 10:09:00,81.9,81.3,30.29,SSW,202,0.0,0.0,98,0.00,FEW,,0.00,WeatherDisplay:10.37,2013-07-15 14:09:00,
2013-07-15 10:14:00,82.0,80.1,30.29,West,270,0.0,0.0,94,0.00,FEW,,0.00,WeatherDisplay:10.37,2013-07-15 14:14:00,
2013-07-15 10:19:00,82.6,79.4,30.29,WSW,248,0.0,0.0,90,0.00,FEW,,0.00,WeatherDisplay:10.37,2013-07-15 14:19:00,
2013-07-15 10:24:00,82.4,81.8,30.29,WSW,248,0.0,0.0,98,0.00,CLR,,0.00,WeatherDisplay:10.37,2013-07-15 14:24:00,
2013-07-15 10:29:00,83.7,78.7,30.29,WNW,292,0.0,0.0,85,0.00,CLR,,0.00,WeatherDisplay:10.37,2013-07-15 14:29:00,
2013-07-15 10:34:00,83.7,79.4,30.29,West,270,0.0,0.0,87,0.00,CLR,,0.00,WeatherDisplay:10.37,2013-07-15 14:34:00,
2013-07-15 10:39:00,83.8,80.2,30.29,SW,225,0.0,0.0,89,0.00,CLR,,0.00,WeatherDisplay:10.37,2013-07-15 14:39:00,
2013-07-15 10:44:00,83.7,80.1,30.29,South,180,0.0,0.0,89,0.00,CLR,,0.00,WeatherDisplay:10.37,2013-07-15 14:44:00,
2013-07-15 10:49:00,83.7,82.4,30.29,South,180,0.0,0.0,96,0.00,CLR,,0.00,WeatherDisplay:10.37,2013-07-15 14:49:00,
2013-07-15 10:54:00,83.8,82.2,30.29,South,180,0.0,0.0,95,0.00,CLR,,0.00,WeatherDisplay:10.37,2013-07-15 14:54:00,
2013-07-15 10:59:00,84.2,79.9,30.29,NNW,338,0.0,0.0,87,0.00,CLR,,0.00,WeatherDisplay:10.37,2013-07-15 14:59:00,
2013-07-15 11:04:00,84.0,81.1,30.29,NNW,338,0.0,0.0,91,0.00,CLR,,0.00,WeatherDisplay:10.37,2013-07-15 15:04:00,
2013-07-15 11:09:00,84.4,82.5,30.29,NNW,338,0.0,0.0,94,0.00,CLR,,0.00,WeatherDisplay:10.37,2013-07-15 15:09:00,
2013-07-15 11:14:00,85.5,81.2,30.29,NW,315,0.0,0.0,87,0.00,CLR,,0.00,WeatherDisplay:10.37,2013-07-15 15:14:00,
2013-07-15 11:20:00,84.7,79.7,30.29,SSW,202,0.0,0.0,85,0.00,CLR,,0.00,WeatherDisplay:10.37,2013-07-15 15:20:00,
2013-07-15 11:25:00,84.2,80.6,30.30,South,180,3.5,0.0,89,0.00,FEW,,0.00,WeatherDisplay:10.37,2013-07-15 15:25:00,
2013-07-15 11:30:00,85.1,80.4,30.30,South,180,0.0,0.0,86,0.00,FEW,,0.00,WeatherDisplay:10.37,2013-07-15 15:30:00,
2013-07-15 11:35:00,85.1,80.4,30.30,South,180,0.0,0.0,86,0.00,FEW,,0.00,WeatherDisplay:10.37,2013-07-15 15:35:00,
2013-07-15 11:40:00,84.7,80.7,30.30,SSW,202,4.6,4.6,88,0.00,FEW,,0.00,WeatherDisplay:10.37,2013-07-15 15:40:00,
2013-07-15 11:46:00,84.6,80.6,30.30,SSW,202,0.0,0.0,88,0.00,FEW,,0.00,WeatherDisplay:10.37,2013-07-15 15:46:00,
2013-07-15 11:51:00,83.8,82.2,30.30,SSW,202,3.5,3.5,95,0.00,FEW,,0.00,WeatherDisplay:10.37,2013-07-15 15:51:00,
2013-07-15 11:56:00,84.2,80.6,30.30,SW,225,0.0,0.0,89,0.00,FEW,,0.00,WeatherDisplay:10.37,2013-07-15 15:56:00,
2013-07-15 12:01:00,85.3,79.2,30.30,West,270,4.7,4.7,82,0.00,FEW,,0.00,WeatherDisplay:10.37,2013-07-15 16:01:00,
2013-07-15 12:06:00,85.1,81.1,30.30,SSW,202,4.6,4.6,88,0.00,FEW,,0.00,WeatherDisplay:10.37,2013-07-15 16:06:00,
2013-07-15 12:12:00,85.1,80.8,30.30,South,180,4.6,4.6,87,0.00,FEW,,0.00,WeatherDisplay:10.37,2013-07-15 16:12:00,
2013-07-15 12:17:00,85.6,80.9,30.30,West,270,3.5,3.5,86,0.00,FEW,,0.00,WeatherDisplay:10.37,2013-07-15 16:17:00,
2013-07-15 12:22:00,85.8,80.0,30.30,SSE,158,7.4,7.4,83,0.00,FEW,,0.00,WeatherDisplay:10.37,2013-07-15 16:22:00,
2013-07-15 12:27:00,85.3,81.0,30.30,SSE,158,4.6,4.6,87,0.00,FEW,,0.00,WeatherDisplay:10.37,2013-07-15 16:27:00,
2013-07-15 12:32:00,85.3,82.0,30.30,SSE,158,3.8,3.8,90,0.00,FEW,,0.00,WeatherDisplay:10.37,2013-07-15 16:32:00,
2013-07-15 12:37:00,85.5,81.5,30.30,WSW,248,4.6,4.6,88,0.00,FEW,,0.00,WeatherDisplay:10.37,2013-07-15 16:37:00,
2013-07-15 12:42:00,84.9,82.0,30.30,SW,225,4.7,4.7,91,0.00,FEW,,0.00,WeatherDisplay:10.37,2013-07-15 16:42:00,
2013-07-15 12:48:00,84.7,81.4,30.30,South,180,4.6,4.6,90,0.00,FEW,,0.00,WeatherDisplay:10.37,2013-07-15 16:48:00,
2013-07-15 12:53:00,85.1,80.8,30.30,West,270,4.6,4.6,87,0.00,FEW,,0.00,WeatherDisplay:10.37,2013-07-15 16:53:00,
2013-07-15 12:58:00,85.3,80.3,30.30,NW,315,4.6,4.6,85,0.00,FEW,,0.00,WeatherDisplay:10.37,2013-07-15 16:58:00,
2013-07-15 13:03:00,85.6,80.6,30.30,West,270,3.8,3.8,85,0.00,FEW,,0.00,WeatherDisplay:10.37,2013-07-15 17:03:00,
2013-07-15 13:08:00,85.5,81.9,30.30,South,180,5.8,5.8,89,0.00,FEW,,0.00,WeatherDisplay:10.37,2013-07-15 17:08:00,
2013-07-15 13:13:00,85.3,80.6,30.30,WSW,248,3.5,3.5,86,0.00,FEW,,0.00,WeatherDisplay:10.37,2013-07-15 17:13:00,
2013-07-15 13:18:00,85.3,81.0,30.30,South,180,4.6,4.6,87,0.00,FEW,,0.00,WeatherDisplay:10.37,2013-07-15 17:18:00,
2013-07-15 13:23:00,85.3,82.0,30.29,South,180,0.0,0.0,90,0.00,CLR,,0.00,WeatherDisplay:10.37,2013-07-15 17:23:00,
2013-07-15 13:29:00,85.1,81.8,30.29,SSE,158,3.5,3.5,90,0.00,CLR,,0.00,WeatherDisplay:10.37,2013-07-15 17:29:00,
2013-07-15 13:34:00,84.7,81.1,30.29,SSE,158,6.5,6.5,89,0.00,CLR,,0.00,WeatherDisplay:10.37,2013-07-15 17:34:00,
2013-07-15 13:39:00,84.4,80.8,30.29,SSE,158,4.7,4.7,89,0.00,CLR,,0.00,WeatherDisplay:10.37,2013-07-15 17:39:00,
2013-07-15 13:44:00,84.2,80.9,30.29,SSE,158,4.6,4.6,90,0.00,CLR,,0.00,WeatherDisplay:10.37,2013-07-15 17:44:00,
2013-07-15 13:49:00,83.8,80.2,30.29,SSE,158,5.6,5.6,89,0.00,CLR,,0.00,WeatherDisplay:10.37,2013-07-15 17:49:00,
2013-07-15 13:54:00,83.8,80.6,30.29,SSE,158,5.8,5.8,90,0.00,CLR,,0.00,WeatherDisplay:10.37,2013-07-15 17:54:00,
2013-07-15 13:59:00,84.4,80.8,30.12,South,180,2.7,-999.0,89,-99.99,,,0.00,Acu-Link.com,2013-07-15 17:59:00,
2013-07-15 14:04:00,84.0,80.1,30.29,South,180,4.6,4.6,88,0.00,CLR,,0.00,WeatherDisplay:10.37,2013-07-15 18:04:00,
2013-07-15 14:09:00,83.8,80.2,30.29,South,180,6.9,6.9,89,0.00,CLR,,0.00,WeatherDisplay:10.37,2013-07-15 18:09:00,
2013-07-15 14:14:00,83.7,80.8,30.29,South,180,6.9,6.9,91,0.00,CLR,,0.00,WeatherDisplay:10.37,2013-07-15 18:14:00,
2013-07-15 14:20:00,83.7,80.8,30.29,South,180,5.8,5.8,91,0.00,CLR,,0.00,WeatherDisplay:10.37,2013-07-15 18:20:00,
2013-07-15 14:25:00,84.0,81.4,30.29,South,180,5.8,5.8,92,0.00,CLR,,0.00,WeatherDisplay:10.37,2013-07-15 18:25:00,
2013-07-15 14:30:00,84.0,80.7,30.29,SSE,158,4.6,4.6,90,0.00,CLR,,0.00,WeatherDisplay:10.37,2013-07-15 18:30:00,
2013-07-15 14:36:00,84.0,80.4,30.29,SSE,158,4.7,4.7,89,0.00,CLR,,0.00,WeatherDisplay:10.37,2013-07-15 18:36:00,
2013-07-15 14:41:00,83.8,80.6,30.29,South,180,4.7,4.7,90,0.00,CLR,,0.00,WeatherDisplay:10.37,2013-07-15 18:41:00,
2013-07-15 14:46:00,83.8,80.6,30.29,South,180,3.5,3.5,90,0.00,CLR,,0.00,WeatherDisplay:10.37,2013-07-15 18:46:00,
2013-07-15 14:51:00,83.7,80.5,30.29,South,180,6.9,6.9,90,0.00,CLR,,0.00,WeatherDisplay:10.37,2013-07-15 18:51:00,
2013-07-15 14:57:00,83.5,80.3,30.29,North,360,5.8,5.8,90,0.00,CLR,,0.00,WeatherDisplay:10.37,2013-07-15 18:57:00,
2013-07-15 15:02:00,83.7,80.8,30.29,South,180,6.9,6.9,91,0.00,CLR,,0.00,WeatherDisplay:10.37,2013-07-15 19:02:00,
2013-07-15 15:07:00,83.7,80.5,30.29,South,180,3.5,0.0,90,0.00,CLR,,0.00,WeatherDisplay:10.37,2013-07-15 19:07:00,
2013-07-15 15:12:00,83.7,80.1,30.29,South,180,5.8,5.8,89,0.00,CLR,,0.00,WeatherDisplay:10.37,2013-07-15 19:12:00,
2013-07-15 15:17:00,83.7,80.5,30.29,South,180,6.9,6.9,90,0.00,CLR,,0.00,WeatherDisplay:10.37,2013-07-15 19:17:00,
2013-07-15 15:22:00,83.3,79.4,30.28,South,180,3.5,3.5,88,0.00,CLR,,0.00,WeatherDisplay:10.37,2013-07-15 19:22:00,
2013-07-15 15:27:00,83.1,79.5,30.28,South,180,0.0,0.0,89,0.00,CLR,,0.00,WeatherDisplay:10.37,2013-07-15 19:27:00,
2013-07-15 15:32:00,83.1,78.8,30.28,South,180,3.5,3.5,87,0.00,CLR,,0.00,WeatherDisplay:10.37,2013-07-15 19:32:00,
2013-07-15 15:37:00,83.1,79.2,30.28,South,180,4.7,4.7,88,0.00,CLR,,0.00,WeatherDisplay:10.37,2013-07-15 19:37:00,
2013-07-15 15:42:00,83.1,78.1,30.28,South,180,4.6,4.6,85,0.00,CLR,,0.00,WeatherDisplay:10.37,2013-07-15 19:42:00,
2013-07-15 15:48:00,83.1,79.2,30.28,South,180,4.6,4.6,88,0.00,CLR,,0.00,WeatherDisplay:10.37,2013-07-15 19:48:00,
2013-07-15 15:53:00,83.1,79.2,30.28,South,180,5.8,5.8,88,0.00,CLR,,0.00,WeatherDisplay:10.37,2013-07-15 19:53:00,
2013-07-15 15:58:00,83.1,79.2,30.28,South,180,3.5,3.5,88,0.00,CLR,,0.00,WeatherDisplay:10.37,2013-07-15 19:58:00,
2013-07-15 16:03:00,83.1,79.2,30.28,South,180,3.8,3.8,88,0.00,CLR,,0.00,WeatherDisplay:10.37,2013-07-15 20:03:00,
2013-07-15 16:08:00,83.1,79.9,30.28,South,180,4.6,4.6,90,0.00,CLR,,0.00,WeatherDisplay:10.37,2013-07-15 20:08:00,
2013-07-15 16:13:00,83.1,79.2,30.28,South,180,4.6,4.6,88,0.00,CLR,,0.00,WeatherDisplay:10.37,2013-07-15 20:13:00,
2013-07-15 16:18:00,83.1,79.9,30.28,South,180,5.8,5.8,90,0.00,CLR,,0.00,WeatherDisplay:10.37,2013-07-15 20:18:00,
2013-07-15 16:23:00,83.1,79.9,30.27,South,180,3.8,3.8,90,0.00,CLR,,0.00,WeatherDisplay:10.37,2013-07-15 20:23:00,
2013-07-15 16:29:00,83.1,80.2,30.27,South,180,4.6,4.6,91,0.00,CLR,,0.00,WeatherDisplay:10.37,2013-07-15 20:29:00,
2013-07-15 16:34:00,83.1,82.2,30.27,South,180,4.7,4.7,97,0.00,CLR,,0.00,WeatherDisplay:10.37,2013-07-15 20:34:00,
2013-07-15 16:39:00,83.1,79.5,30.27,South,180,2.3,0.0,89,0.00,CLR,,0.00,WeatherDisplay:10.37,2013-07-15 20:39:00,
2013-07-15 16:44:00,83.1,81.2,30.27,South,180,4.6,4.6,94,0.00,CLR,,0.00,WeatherDisplay:10.37,2013-07-15 20:44:00,
2013-07-15 16:49:00,83.1,80.2,30.27,South,180,0.0,0.0,91,0.00,CLR,,0.00,WeatherDisplay:10.37,2013-07-15 20:49:00,
2013-07-15 16:54:00,83.1,79.2,30.27,West,270,3.8,3.8,88,0.00,CLR,,0.00,WeatherDisplay:10.37,2013-07-15 20:54:00,
2013-07-15 16:59:00,83.1,80.2,30.27,South,180,3.5,3.5,91,0.00,CLR,,0.00,WeatherDisplay:10.37,2013-07-15 20:59:00,
2013-07-15 17:04:00,83.1,81.5,30.27,South,180,0.0,0.0,95,0.00,CLR,,0.00,WeatherDisplay:10.37,2013-07-15 21:04:00,
2013-07-15 17:09:00,83.1,79.9,30.27,South,180,3.5,0.0,90,0.00,CLR,,0.00,WeatherDisplay:10.37,2013-07-15 21:09:00,
2013-07-15 17:14:00,83.1,78.5,30.27,South,180,0.0,0.0,86,0.00,CLR,,0.00,WeatherDisplay:10.37,2013-07-15 21:14:00,
2013-07-15 17:19:00,83.3,76.9,30.27,West,270,3.5,3.5,81,0.00,CLR,,0.00,WeatherDisplay:10.37,2013-07-15 21:19:00,
2013-07-15 17:25:00,83.5,77.8,30.26,West,270,2.3,0.0,83,0.00,CLR,,0.00,WeatherDisplay:10.37,2013-07-15 21:25:00,
2013-07-15 17:30:00,83.1,78.5,30.26,West,270,3.5,3.5,86,0.00,CLR,,0.00,WeatherDisplay:10.37,2013-07-15 21:30:00,
2013-07-15 17:35:00,82.9,77.9,30.26,WSW,248,0.0,0.0,85,0.00,CLR,,0.00,WeatherDisplay:10.37,2013-07-15 21:35:00,
2013-07-15 17:40:00,82.8,78.2,30.26,WSW,248,0.0,0.0,86,0.00,CLR,,0.00,WeatherDisplay:10.37,2013-07-15 21:40:00,
2013-07-15 17:45:00,82.8,77.5,30.26,SW,225,3.5,3.5,84,0.00,CLR,,0.00,WeatherDisplay:10.37,2013-07-15 21:45:00,
2013-07-15 17:50:00,82.9,77.6,30.26,WSW,248,0.0,0.2,84,0.00,CLR,,0.00,WeatherDisplay:10.37,2013-07-15 21:50:00,
2013-07-15 17:55:00,83.1,77.4,30.26,West,270,3.5,3.5,83,0.00,CLR,,0.00,WeatherDisplay:10.37,2013-07-15 21:55:00,
2013-07-15 18:00:00,82.8,78.2,30.26,SSW,202,3.5,3.5,86,0.00,CLR,,0.00,WeatherDisplay:10.37,2013-07-15 22:00:00,
2013-07-15 18:05:00,82.6,78.0,30.26,SSW,202,0.0,0.0,86,0.00,CLR,,0.00,WeatherDisplay:10.37,2013-07-15 22:05:00,
2013-07-15 18:11:00,82.6,79.0,30.26,SSW,202,4.7,4.7,89,0.00,CLR,,0.00,WeatherDisplay:10.37,2013-07-15 22:11:00,
2013-07-15 18:16:00,82.6,82.0,30.26,SSW,202,3.5,3.5,98,0.00,CLR,,0.00,WeatherDisplay:10.37,2013-07-15 22:16:00,
2013-07-15 18:21:00,82.6,82.0,30.26,South,180,3.8,3.8,98,0.00,CLR,,0.00,WeatherDisplay:10.37,2013-07-15 22:21:00,
2013-07-15 18:26:00,82.4,81.8,30.25,South,180,4.7,4.7,98,0.00,CLR,,0.00,WeatherDisplay:10.37,2013-07-15 22:26:00,
2013-07-15 18:31:00,82.2,81.6,30.25,South,180,4.6,4.6,98,0.00,CLR,,0.00,WeatherDisplay:10.37,2013-07-15 22:31:00,
2013-07-15 18:36:00,82.2,81.6,30.25,South,180,4.6,4.6,98,0.00,CLR,,0.00,WeatherDisplay:10.37,2013-07-15 22:36:00,
2013-07-15 18:42:00,82.2,81.6,30.25,South,180,3.8,3.8,98,0.00,CLR,,0.00,WeatherDisplay:10.37,2013-07-15 22:42:00,
2013-07-15 18:47:00,82.0,81.4,30.08,South,180,0.0,-999.0,98,-99.99,,,0.00,Acu-Link.com,2013-07-15 22:47:00,
2013-07-15 18:52:00,82.0,81.4,30.25,South,180,0.0,0.0,98,0.00,CLR,,0.00,WeatherDisplay:10.37,2013-07-15 22:52:00,
2013-07-15 18:57:00,81.7,81.1,30.25,South,180,0.0,0.0,98,0.00,CLR,,0.00,WeatherDisplay:10.37,2013-07-15 22:57:00,
2013-07-15 19:02:00,81.5,80.9,30.08,South,180,0.0,-999.0,98,-99.99,,,0.00,Acu-Link.com,2013-07-15 23:02:00,
2013-07-15 19:07:00,81.5,80.9,30.25,South,180,0.0,0.0,98,0.00,CLR,,0.00,WeatherDisplay:10.37,2013-07-15 23:07:00,
2013-07-15 19:12:00,81.5,80.9,30.25,South,180,0.0,0.0,98,0.00,CLR,,0.00,WeatherDisplay:10.37,2013-07-15 23:12:00,
2013-07-15 19:18:00,81.5,80.9,30.25,South,180,0.0,0.0,98,0.00,CLR,,0.00,WeatherDisplay:10.37,2013-07-15 23:18:00,
2013-07-15 19:23:00,81.3,80.7,30.25,South,180,0.0,0.0,98,0.00,CLR,,0.00,WeatherDisplay:10.37,2013-07-15 23:23:00,
2013-07-15 19:28:00,81.1,80.5,30.25,South,180,0.0,0.0,98,0.00,CLR,,0.00,WeatherDisplay:10.37,2013-07-15 23:28:00,
2013-07-15 19:33:00,81.1,79.5,30.25,South,180,0.0,0.0,95,0.00,CLR,,0.00,WeatherDisplay:10.37,2013-07-15 23:33:00,
2013-07-15 19:38:00,81.0,80.1,30.25,South,180,0.0,0.0,97,0.00,CLR,,0.00,WeatherDisplay:10.37,2013-07-15 23:38:00,
2013-07-15 19:44:00,80.6,80.0,30.25,South,180,0.0,0.0,98,0.00,CLR,,0.00,WeatherDisplay:10.37,2013-07-15 23:44:00,
2013-07-15 19:49:00,80.6,80.0,30.25,South,180,0.0,0.0,98,0.00,CLR,,0.00,WeatherDisplay:10.37,2013-07-15 23:49:00,
2013-07-15 19:54:00,80.6,80.0,30.25,South,180,0.0,0.0,98,0.00,CLR,,0.00,WeatherDisplay:10.37,2013-07-15 23:54:00,
2013-07-15 19:59:00,80.4,79.8,30.25,South,180,0.0,0.0,98,0.00,CLR,,0.00,WeatherDisplay:10.37,2013-07-15 23:59:00,
2013-07-15 20:03:00,80.4,79.8,30.25,South,180,0.0,0.0,98,0.00,CLR,,0.00,WeatherDisplay:10.37,2013-07-16 00:03:00,
2013-07-15 20:09:00,80.2,79.6,30.25,South,180,0.0,0.0,98,0.00,CLR,,0.00,WeatherDisplay:10.37,2013-07-16 00:09:00,
2013-07-15 20:14:00,80.2,79.6,30.25,South,180,0.0,0.0,98,0.00,CLR,,0.00,WeatherDisplay:10.37,2013-07-16 00:14:00,
2013-07-15 20:19:00,80.1,79.5,30.25,South,180,0.0,0.0,98,0.00,CLR,,0.00,WeatherDisplay:10.37,2013-07-16 00:19:00,
2013-07-15 20:24:00,80.1,79.5,30.25,South,180,0.0,0.0,98,0.00,CLR,,0.00,WeatherDisplay:10.37,2013-07-16 00:24:00,
2013-07-15 20:29:00,79.9,79.3,30.25,South,180,0.0,0.0,98,0.00,CLR,,0.00,WeatherDisplay:10.37,2013-07-16 00:29:00,
2013-07-15 20:34:00,79.9,79.3,30.25,South,180,0.0,0.0,98,0.00,CLR,,0.00,WeatherDisplay:10.37,2013-07-16 00:34:00,
2013-07-15 20:40:00,79.7,79.1,30.25,South,180,0.0,0.0,98,0.00,CLR,,0.00,WeatherDisplay:10.37,2013-07-16 00:40:00,
2013-07-15 20:45:00,79.5,78.9,30.25,South,180,0.0,0.0,98,0.00,CLR,,0.00,WeatherDisplay:10.37,2013-07-16 00:45:00,
2013-07-15 20:50:00,79.3,78.7,30.25,South,180,0.0,0.0,98,0.00,CLR,,0.00,WeatherDisplay:10.37,2013-07-16 00:50:00,
2013-07-15 20:55:00,79.3,78.7,30.25,South,180,0.0,0.0,98,0.00,CLR,,0.00,WeatherDisplay:10.37,2013-07-16 00:55:00,
2013-07-15 21:00:00,79.2,78.6,30.25,South,180,0.0,0.0,98,0.00,CLR,,0.00,WeatherDisplay:10.37,2013-07-16 01:00:00,
2013-07-15 21:05:00,79.2,78.6,30.25,South,180,0.0,0.0,98,0.00,CLR,,0.00,WeatherDisplay:10.37,2013-07-16 01:05:00,
2013-07-15 21:11:00,79.0,78.4,30.25,South,180,0.0,0.0,98,0.00,CLR,,0.00,WeatherDisplay:10.37,2013-07-16 01:11:00,
2013-07-15 21:16:00,79.0,78.4,30.25,South,180,0.0,0.0,98,0.00,CLR,,0.00,WeatherDisplay:10.37,2013-07-16 01:16:00,
2013-07-15 21:21:00,79.0,78.4,30.25,South,180,0.0,0.0,98,0.00,CLR,,0.00,WeatherDisplay:10.37,2013-07-16 01:21:00,
2013-07-15 21:26:00,79.0,78.4,30.25,South,180,0.0,0.0,98,0.00,CLR,,0.00,WeatherDisplay:10.37,2013-07-16 01:26:00,
2013-07-15 21:31:00,78.8,78.2,30.25,South,180,0.0,0.0,98,0.00,CLR,,0.00,WeatherDisplay:10.37,2013-07-16 01:31:00,
2013-07-15 21:36:00,78.6,78.0,30.25,South,180,0.0,0.0,98,0.00,CLR,,0.00,WeatherDisplay:10.37,2013-07-16 01:36:00,
2013-07-15 21:41:00,78.6,78.0,30.25,South,180,0.0,0.0,98,0.00,CLR,,0.00,WeatherDisplay:10.37,2013-07-16 01:41:00,
2013-07-15 21:46:00,78.3,77.7,30.25,South,180,0.0,0.0,98,0.00,CLR,,0.00,WeatherDisplay:10.37,2013-07-16 01:46:00,
2013-07-15 21:52:00,78.3,77.7,30.25,South,180,0.0,0.0,98,0.00,CLR,,0.00,WeatherDisplay:10.37,2013-07-16 01:52:00,
2013-07-15 21:57:00,78.3,77.7,30.25,South,180,0.0,0.0,98,0.00,CLR,,0.00,WeatherDisplay:10.37,2013-07-16 01:57:00,
2013-07-15 22:02:00,78.1,77.5,30.25,South,180,0.0,0.0,98,0.00,CLR,,0.00,WeatherDisplay:10.37,2013-07-16 02:02:00,
2013-07-15 22:07:00,78.1,77.5,30.25,South,180,0.0,0.0,98,0.00,CLR,,0.00,WeatherDisplay:10.37,2013-07-16 02:07:00,
2013-07-15 22:12:00,78.1,77.5,30.25,South,180,0.0,0.0,98,0.00,CLR,,0.00,WeatherDisplay:10.37,2013-07-16 02:12:00,
2013-07-15 22:17:00,77.9,77.3,30.25,South,180,0.0,0.0,98,0.00,CLR,,0.00,WeatherDisplay:10.37,2013-07-16 02:17:00,
2013-07-15 22:23:00,77.9,77.3,30.26,South,180,0.0,0.0,98,0.00,CLR,,0.00,WeatherDisplay:10.37,2013-07-16 02:23:00,
2013-07-15 22:28:00,77.9,77.3,30.26,South,180,0.0,0.0,98,0.00,CLR,,0.00,WeatherDisplay:10.37,2013-07-16 02:28:00,
2013-07-15 22:33:00,77.9,77.3,30.26,South,180,0.0,0.0,98,0.00,CLR,,0.00,WeatherDisplay:10.37,2013-07-16 02:33:00,
2013-07-15 22:38:00,77.9,77.3,30.26,South,180,0.0,0.0,98,0.00,CLR,,0.00,WeatherDisplay:10.37,2013-07-16 02:38:00,
2013-07-15 22:43:00,77.9,77.3,30.26,South,180,0.0,0.0,98,0.00,CLR,,0.00,WeatherDisplay:10.37,2013-07-16 02:43:00,
2013-07-15 22:48:00,77.9,77.3,30.26,South,180,0.0,0.0,98,0.00,CLR,,0.00,WeatherDisplay:10.37,2013-07-16 02:48:00,
2013-07-15 22:54:00,77.9,77.3,30.26,South,180,0.0,0.0,98,0.00,CLR,,0.00,WeatherDisplay:10.37,2013-07-16 02:54:00,
2013-07-15 22:59:00,77.7,77.1,30.26,South,180,0.0,0.0,98,0.00,CLR,,0.00,WeatherDisplay:10.37,2013-07-16 02:59:00,
2013-07-15 23:04:00,77.7,77.1,30.26,South,180,0.0,0.0,98,0.00,CLR,,0.00,WeatherDisplay:10.37,2013-07-16 03:04:00,
2013-07-15 23:09:00,77.7,77.1,30.26,South,180,0.0,0.0,98,0.00,CLR,,0.00,WeatherDisplay:10.37,2013-07-16 03:09:00,
2013-07-15 23:14:00,77.7,77.1,30.26,South,180,0.0,0.0,98,0.00,CLR,,0.00,WeatherDisplay:10.37,2013-07-16 03:14:00,
2013-07-15 23:19:00,77.7,77.1,30.26,South,180,0.0,0.0,98,0.00,CLR,,0.00,WeatherDisplay:10.37,2013-07-16 03:19:00,
2013-07-15 23:25:00,77.7,77.1,30.27,South,180,0.0,0.0,98,0.00,CLR,,0.00,WeatherDisplay:10.37,2013-07-16 03:25:00,
2013-07-15 23:30:00,77.7,77.1,30.27,South,180,0.0,0.0,98,0.00,CLR,,0.00,WeatherDisplay:10.37,2013-07-16 03:30:00,
2013-07-15 23:35:00,77.7,77.1,30.27,South,180,0.0,0.0,98,0.00,CLR,,0.00,WeatherDisplay:10.37,2013-07-16 03:35:00,
2013-07-15 23:40:00,77.5,76.9,30.27,South,180,0.0,0.0,98,0.00,CLR,,0.00,WeatherDisplay:10.37,2013-07-16 03:40:00,
2013-07-15 23:46:00,77.5,76.9,30.27,South,180,0.0,0.0,98,0.00,CLR,,0.00,WeatherDisplay:10.37,2013-07-16 03:46:00,
2013-07-15 23:51:00,77.5,76.9,30.27,South,180,0.0,0.0,98,0.00,CLR,,0.00,WeatherDisplay:10.37,2013-07-16 03:51:00,
2013-07-15 23:56:00,77.4,76.8,30.27,South,180,0.0,0.0,98,0.00,CLR,,0.00,WeatherDisplay:10.37,2013-07-16 03:56:00,